| time (UTC) | temp F | wind direction | speed knots | gust knots | rain 1hr in | rain 24hr in | rain mn in | humidity % | barometer mb |
| 20260509221100 | 82 | 285 | 0.0 | 2.6 | 0.00 | 0.00 | 0.00 | 32 | 1006.5 |
| 20260509220535 | 82 | 291 | 0.0 | 2.6 | 0.00 | 0.00 | 0.00 | 31 | 1006.5 |
| 20260509220011 | 83 | 279 | 0.9 | 1.7 | 0.00 | 0.00 | 0.00 | 31 | 1006.5 |
| 20260509215553 | 83 | 265 | 0.0 | 2.6 | 0.00 | 0.00 | 0.00 | 33 | 1006.5 |
| 20260509215032 | 83 | 264 | 0.0 | 2.6 | 0.00 | 0.00 | 0.00 | 32 | 1006.5 |
| 20260509214506 | 82 | 275 | 0.0 | 2.6 | 0.00 | 0.00 | 0.00 | 33 | 1006.5 |
| 20260509214046 | 82 | 300 | 0.0 | 0.9 | 0.00 | 0.00 | 0.00 | 35 | 1006.5 |
| 20260509213523 | 82 | 281 | 0.0 | 1.7 | 0.00 | 0.00 | 0.00 | 36 | 1006.6 |
| 20260509213103 | 82 | 285 | 0.0 | 3.5 | 0.00 | 0.00 | 0.00 | 35 | 1006.5 |
| 20260509212539 | 82 | 264 | 0.0 | 3.5 | 0.00 | 0.00 | 0.00 | 35 | 1006.6 |
| 20260509212017 | 82 | 200 | 0.0 | 0.9 | 0.00 | 0.00 | 0.00 | 38 | 1006.5 |
| 20260509211556 | 82 | 291 | 0.0 | 2.6 | 0.00 | 0.00 | 0.00 | 33 | 1006.5 |
| 20260509211033 | 83 | 313 | 0.0 | 2.6 | 0.00 | 0.00 | 0.00 | 33 | 1006.5 |
| 20260509210510 | 82 | 277 | 0.0 | 2.6 | 0.00 | 0.00 | 0.00 | 35 | 1006.6 |
| 20260509210057 | 82 | 277 | 0.0 | 2.6 | 0.00 | 0.00 | 0.00 | 34 | 1006.6 |
| 20260509205523 | 82 | 273 | 0.0 | 2.6 | 0.00 | 0.00 | 0.00 | 35 | 1006.7 |
| 20260509205104 | 82 | 273 | 0.0 | 2.6 | 0.00 | 0.00 | 0.00 | 36 | 1006.7 |
| 20260509204549 | 82 | 278 | 0.0 | 1.7 | 0.00 | 0.00 | 0.00 | 35 | 1006.8 |
| 20260509204023 | 81 | 280 | 0.0 | 2.6 | 0.00 | 0.00 | 0.00 | 37 | 1006.9 |
| 20260509203558 | 81 | 280 | 0.0 | 2.6 | 0.00 | 0.00 | 0.00 | 35 | 1007.0 |
| 20260509203033 | 81 | 275 | 0.0 | 2.6 | 0.00 | 0.00 | 0.00 | 38 | 1007.0 |
| 20260509202510 | 81 | 316 | 0.9 | 2.6 | 0.00 | 0.00 | 0.00 | 39 | 1007.1 |
| 20260509202051 | 81 | 311 | 0.0 | 1.7 | 0.00 | 0.00 | 0.00 | 39 | 1007.1 |
| 20260509201530 | 81 | 298 | 0.0 | 1.7 | 0.00 | 0.00 | 0.00 | 38 | 1007.2 |
| 20260509201004 | 81 | 311 | 0.0 | 2.6 | 0.00 | 0.00 | 0.00 | 38 | 1007.2 |
| 20260509200545 | 81 | 285 | 0.0 | 2.6 | 0.00 | 0.00 | 0.00 | 39 | 1007.2 |
| 20260509200022 | 81 | 282 | 0.0 | 3.5 | 0.00 | 0.00 | 0.00 | 38 | 1007.3 |
| 20260509195604 | 81 | 267 | 0.9 | 3.5 | 0.00 | 0.00 | 0.00 | 36 | 1007.3 |
| 20260509195039 | 81 | 317 | 0.0 | 2.6 | 0.00 | 0.00 | 0.00 | 37 | 1007.4 |
| 20260509194518 | 81 | 298 | 0.0 | 2.6 | 0.00 | 0.00 | 0.00 | 38 | 1007.5 |
| 20260509194056 | 81 | 327 | 0.9 | 2.6 | 0.00 | 0.00 | 0.00 | 37 | 1007.6 |
| 20260509193533 | 81 | 277 | 0.0 | 1.7 | 0.00 | 0.00 | 0.00 | 38 | 1007.5 |
| 20260509193008 | 81 | 316 | 0.0 | 1.7 | 0.00 | 0.00 | 0.00 | 40 | 1007.6 |
| 20260509192551 | 81 | 316 | 0.0 | 2.6 | 0.00 | 0.00 | 0.00 | 41 | 1007.6 |
| 20260509192026 | 81 | 316 | 0.9 | 2.6 | 0.00 | 0.00 | 0.00 | 39 | 1007.6 |
| 20260509191605 | 81 | 203 | 0.0 | 1.7 | 0.00 | 0.00 | 0.00 | 40 | 1007.6 |
| 20260509191039 | 80 | 203 | 0.0 | 1.7 | 0.00 | 0.00 | 0.00 | 40 | 1007.7 |
| 20260509190516 | 80 | 289 | 0.0 | 3.5 | 0.00 | 0.00 | 0.00 | 41 | 1007.7 |
| 20260509190056 | 80 | 257 | 0.0 | 3.5 | 0.00 | 0.00 | 0.00 | 40 | 1007.8 |
| 20260509185531 | 80 | 105 | 0.0 | 3.5 | 0.00 | 0.00 | 0.00 | 41 | 1007.9 |
| 20260509185011 | 80 | 79 | 0.9 | 2.6 | 0.00 | 0.00 | 0.00 | 42 | 1007.9 |
| 20260509184558 | 80 | 294 | 0.0 | 2.6 | 0.00 | 0.00 | 0.00 | 41 | 1007.9 |
| 20260509184023 | 80 | 329 | 0.0 | 1.7 | 0.00 | 0.00 | 0.00 | 40 | 1008.0 |
| 20260509183604 | 80 | 274 | 0.0 | 1.7 | 0.00 | 0.00 | 0.00 | 38 | 1008.0 |
| 20260509183039 | 80 | 274 | 0.0 | 1.7 | 0.00 | 0.00 | 0.00 | 40 | 1008.0 |
| 20260509182515 | 79 | 279 | 0.0 | 1.7 | 0.00 | 0.00 | 0.00 | 40 | 1008.1 |
| 20260509182056 | 79 | 280 | 0.0 | 2.6 | 0.00 | 0.00 | 0.00 | 41 | 1008.1 |
| 20260509181532 | 79 | 280 | 0.0 | 2.6 | 0.00 | 0.00 | 0.00 | 40 | 1008.2 |
| 20260509181010 | 79 | 251 | 0.0 | 2.6 | 0.00 | 0.00 | 0.00 | 40 | 1008.2 |
| 20260509180550 | 79 | 275 | 0.0 | 2.6 | 0.00 | 0.00 | 0.00 | 43 | 1008.3 |
| 20260509180026 | 79 | 326 | 0.0 | 0.9 | 0.00 | 0.00 | 0.00 | 45 | 1008.4 |
| 20260509175502 | 78 | 326 | 0.0 | 1.7 | 0.00 | 0.00 | 0.00 | 43 | 1008.4 |
| 20260509175042 | 78 | 326 | 0.0 | 2.6 | 0.00 | 0.00 | 0.00 | 42 | 1008.5 |
| 20260509174518 | 78 | 291 | 0.0 | 2.6 | 0.00 | 0.00 | 0.00 | 43 | 1008.5 |
| 20260509174100 | 78 | 186 | 0.0 | 1.7 | 0.00 | 0.00 | 0.00 | 42 | 1008.4 |
| 20260509173535 | 78 | 186 | 0.0 | 0.9 | 0.00 | 0.00 | 0.00 | 45 | 1008.6 |
| 20260509173011 | 77 | 186 | 0.0 | 1.7 | 0.00 | 0.00 | 0.00 | 47 | 1008.7 |
| 20260509172551 | 77 | 186 | 0.0 | 1.7 | 0.00 | 0.00 | 0.00 | 45 | 1008.7 |
| 20260509172028 | 77 | 184 | 0.0 | 0.9 | 0.00 | 0.00 | 0.00 | 48 | 1008.8 |
| 20260509171502 | 76 | 295 | 0.0 | 2.6 | 0.00 | 0.00 | 0.00 | 45 | 1008.9 |
| 20260509171044 | 76 | 296 | 0.0 | 2.6 | 0.00 | 0.00 | 0.00 | 44 | 1008.9 |
| 20260509170519 | 76 | 274 | 0.0 | 2.6 | 0.00 | 0.00 | 0.00 | 44 | 1008.9 |
| 20260509170100 | 76 | 274 | 0.0 | 2.6 | 0.00 | 0.00 | 0.00 | 46 | 1009.0 |
| 20260509165536 | 75 | 269 | 0.0 | 1.7 | 0.00 | 0.00 | 0.00 | 45 | 1009.0 |
| 20260509165011 | 75 | 277 | 0.0 | 1.7 | 0.00 | 0.00 | 0.00 | 43 | 1009.0 |
| 20260509164553 | 75 | 284 | 0.0 | 0.9 | 0.00 | 0.00 | 0.00 | 46 | 1009.0 |
| 20260509164028 | 75 | 284 | 0.0 | 0.9 | 0.00 | 0.00 | 0.00 | 48 | 1009.1 |
| 20260509163503 | 74 | 252 | 0.0 | 1.7 | 0.00 | 0.00 | 0.00 | 49 | 1009.0 |
| 20260509163044 | 74 | 296 | 0.0 | 2.6 | 0.00 | 0.00 | 0.00 | 49 | 1009.0 |
| 20260509162521 | 74 | 296 | 0.0 | 2.6 | 0.00 | 0.00 | 0.00 | 49 | 1009.0 |
| 20260509162102 | 73 | 290 | 0.0 | 1.7 | 0.00 | 0.00 | 0.00 | 50 | 1008.9 |
| 20260509161538 | 73 | 290 | 0.0 | 1.7 | 0.00 | 0.00 | 0.00 | 49 | 1008.9 |
| 20260509161013 | 73 | 275 | 0.0 | 1.7 | 0.00 | 0.00 | 0.00 | 51 | 1008.9 |
| 20260509160557 | 73 | 278 | 0.0 | 0.9 | 0.00 | 0.00 | 0.00 | 51 | 1008.9 |
| 20260509160035 | 72 | 278 | 0.0 | 1.7 | 0.00 | 0.00 | 0.00 | 52 | 1008.9 |
| 20260509155507 | 72 | 278 | 0.0 | 2.6 | 0.00 | 0.00 | 0.00 | 52 | 1008.9 |
| 20260509155048 | 72 | 274 | 0.9 | 2.6 | 0.00 | 0.00 | 0.00 | 51 | 1008.9 |
| 20260509154523 | 71 | 302 | 0.0 | 2.6 | 0.00 | 0.00 | 0.00 | 53 | 1008.8 |
| 20260509154104 | 71 | 310 | 0.9 | 2.6 | 0.00 | 0.00 | 0.00 | 52 | 1008.8 |
| 20260509153540 | 71 | 282 | 0.0 | 1.7 | 0.00 | 0.00 | 0.00 | 54 | 1008.8 |
| 20260509153030 | 71 | 272 | 0.0 | 1.7 | 0.00 | 0.00 | 0.00 | 55 | 1008.7 |
| 20260509152557 | 70 | 282 | 0.0 | 1.7 | 0.00 | 0.00 | 0.00 | 56 | 1008.8 |
| 20260509152037 | 70 | 273 | 0.9 | 1.7 | 0.00 | 0.00 | 0.00 | 56 | 1008.8 |
| 20260509151507 | 69 | 282 | 0.9 | 2.6 | 0.00 | 0.00 | 0.00 | 57 | 1008.8 |
| 20260509151048 | 69 | 276 | 0.0 | 2.6 | 0.00 | 0.00 | 0.00 | 58 | 1008.7 |
| 20260509150524 | 69 | 280 | 0.0 | 1.7 | 0.00 | 0.00 | 0.00 | 58 | 1008.7 |
| 20260509150008 | 68 | 276 | 0.0 | 2.6 | 0.00 | 0.00 | 0.00 | 60 | 1008.7 |
| 20260509145550 | 68 | 276 | 0.9 | 2.6 | 0.00 | 0.00 | 0.00 | 59 | 1008.7 |
| 20260509145024 | 68 | 279 | 0.9 | 2.6 | 0.00 | 0.00 | 0.00 | 60 | 1008.8 |
| 20260509144612 | 67 | 274 | 0.0 | 2.6 | 0.00 | 0.00 | 0.00 | 62 | 1008.8 |
| 20260509144039 | 67 | 293 | 1.7 | 2.6 | 0.00 | 0.00 | 0.00 | 63 | 1008.8 |
| 20260509143515 | 66 | 307 | 0.0 | 2.6 | 0.00 | 0.00 | 0.00 | 66 | 1008.9 |
| 20260509143119 | 66 | 306 | 0.0 | 2.6 | 0.00 | 0.00 | 0.00 | 67 | 1008.8 |
| 20260509142533 | 66 | 283 | 0.0 | 2.6 | 0.00 | 0.00 | 0.00 | 68 | 1008.7 |
| 20260509142012 | 65 | 305 | 0.0 | 2.6 | 0.00 | 0.00 | 0.00 | 69 | 1008.8 |
| 20260509141549 | 65 | 297 | 0.0 | 2.6 | 0.00 | 0.00 | 0.00 | 69 | 1008.8 |
| 20260509141024 | 64 | 257 | 0.9 | 2.6 | 0.00 | 0.00 | 0.00 | 70 | 1008.8 |
| 20260509140604 | 64 | 278 | 0.0 | 2.6 | 0.00 | 0.00 | 0.00 | 72 | 1008.8 |
| 20260509140041 | 63 | 279 | 0.0 | 3.5 | 0.00 | 0.00 | 0.00 | 74 | 1008.8 |
| 20260509135517 | 63 | 281 | 0.0 | 3.5 | 0.00 | 0.00 | 0.00 | 75 | 1008.9 |
| 20260509135102 | 62 | 264 | 0.0 | 1.7 | 0.00 | 0.00 | 0.00 | 76 | 1008.9 |
| 20260509134557 | 62 | 302 | 0.0 | 3.5 | 0.00 | 0.00 | 0.00 | 76 | 1008.9 |
| 20260509134010 | 61 | 316 | 0.9 | 3.5 | 0.00 | 0.00 | 0.00 | 76 | 1008.9 |
| 20260509133553 | 61 | 327 | 0.0 | 3.5 | 0.00 | 0.00 | 0.00 | 76 | 1008.9 |
| 20260509133029 | 60 | 282 | 0.0 | 1.7 | 0.00 | 0.00 | 0.00 | 75 | 1009.0 |
| 20260509132502 | 60 | 283 | 0.0 | 1.7 | 0.00 | 0.00 | 0.00 | 74 | 1009.0 |
| 20260509132046 | 60 | 313 | 0.0 | 1.7 | 0.00 | 0.00 | 0.00 | 72 | 1009.0 |
| 20260509131518 | 59 | 268 | 0.0 | 1.7 | 0.00 | 0.00 | 0.00 | 71 | 1009.0 |
| 20260509131057 | 59 | 253 | 0.0 | 1.7 | 0.00 | 0.00 | 0.00 | 66 | 1009.0 |
| 20260509130537 | 59 | 300 | 0.0 | 1.7 | 0.00 | 0.00 | 0.00 | 64 | 1008.9 |
| 20260509130010 | 58 | 310 | 0.0 | 0.9 | 0.00 | 0.00 | 0.00 | 54 | 1008.7 |
| 20260509125549 | 58 | 273 | 0.0 | 0.0 | 0.00 | 0.00 | 0.00 | 46 | 1008.6 |
| 20260509125030 | 57 | 273 | 0.0 | 0.0 | 0.00 | 0.00 | 0.00 | 33 | 1008.6 |
| 20260509124504 | 57 | 273 | 0.0 | 0.0 | 0.00 | 0.00 | 0.00 | 23 | 1008.6 |
| 20260509124046 | 56 | 273 | 0.0 | 0.0 | 0.00 | 0.00 | 0.00 | 15 | 1008.6 |
| 20260509123520 | 56 | 273 | 0.0 | 0.9 | 0.00 | 0.00 | 0.00 | 1 | 1008.6 |
| 20260509123131 | 55 | 273 | 0.0 | 0.9 | 0.00 | 0.00 | 0.00 | 1 | 1008.6 |
| 20260509122537 | 55 | 155 | 0.0 | 0.0 | 0.00 | 0.00 | 0.00 | 1 | 1008.5 |
| 20260509122016 | 54 | 155 | 0.0 | 0.0 | 0.00 | 0.00 | 0.00 | 1 | 1008.4 |
| 20260509121612 | 54 | 155 | 0.0 | 0.0 | 0.00 | 0.00 | 0.00 | 1 | 1008.4 |
| 20260509121031 | 54 | 155 | 0.0 | 0.0 | 0.00 | 0.00 | 0.00 | 1 | 1008.2 |
| 20260509120507 | 54 | 155 | 0.0 | 0.0 | 0.00 | 0.00 | 0.00 | 1 | 1008.2 |
| 20260509120048 | 53 | 155 | 0.0 | 0.0 | 0.00 | 0.00 | 0.00 | 1 | 1008.2 |
| 20260509115522 | 53 | 155 | 0.0 | 0.0 | 0.00 | 0.00 | 0.00 | 1 | 1008.1 |
| 20260509115100 | 53 | 155 | 0.0 | 0.0 | 0.00 | 0.00 | 0.00 | 1 | 1008.1 |
| 20260509114539 | 53 | 155 | 0.0 | 0.0 | 0.00 | 0.00 | 0.00 | 1 | 1008.1 |
| 20260509114016 | 53 | 155 | 0.0 | 0.0 | 0.00 | 0.00 | 0.00 | 1 | 1008.0 |
| 20260509113556 | 53 | 155 | 0.0 | 0.0 | 0.00 | 0.00 | 0.00 | 1 | 1007.9 |
| 20260509113036 | 53 | 155 | 0.0 | 0.0 | 0.00 | 0.00 | 0.00 | 1 | 1007.8 |
| 20260509112505 | 53 | 155 | 0.0 | 0.0 | 0.00 | 0.00 | 0.00 | 1 | 1007.6 |
| 20260509112046 | 53 | 155 | 0.0 | 0.0 | 0.00 | 0.00 | 0.00 | 1 | 1007.6 |
| 20260509111522 | 53 | 155 | 0.0 | 0.0 | 0.00 | 0.00 | 0.00 | 1 | 1007.6 |
| 20260509111104 | 53 | 155 | 0.0 | 0.0 | 0.00 | 0.00 | 0.00 | 1 | 1007.6 |
| 20260509110537 | 53 | 155 | 0.0 | 1.7 | 0.00 | 0.00 | 0.00 | 1 | 1007.6 |
| 20260509110013 | 53 | 155 | 0.0 | 1.7 | 0.00 | 0.00 | 0.00 | 1 | 1007.6 |
| 20260509105554 | 53 | 154 | 0.0 | 0.0 | 0.00 | 0.00 | 0.00 | 1 | 1007.5 |
| 20260509105028 | 53 | 154 | 0.0 | 0.0 | 0.00 | 0.00 | 0.00 | 1 | 1007.6 |
| 20260509104503 | 53 | 154 | 0.0 | 0.0 | 0.00 | 0.00 | 0.00 | 1 | 1007.6 |
| 20260509104043 | 53 | 154 | 0.0 | 0.0 | 0.00 | 0.00 | 0.00 | 1 | 1007.7 |
| 20260509103518 | 53 | 154 | 0.0 | 0.0 | 0.00 | 0.00 | 0.00 | 1 | 1007.7 |
| 20260509103106 | 53 | 154 | 0.0 | 0.0 | 0.00 | 0.00 | 0.00 | 1 | 1007.7 |
| 20260509102535 | 54 | 154 | 0.0 | 0.0 | 0.00 | 0.00 | 0.00 | 1 | 1007.6 |
| 20260509102013 | 54 | 154 | 0.0 | 0.0 | 0.00 | 0.00 | 0.00 | 1 | 1007.6 |
| 20260509101618 | 54 | 154 | 0.0 | 0.0 | 0.00 | 0.00 | 0.00 | 1 | 1007.6 |
| 20260509101031 | 54 | 154 | 0.0 | 0.0 | 0.00 | 0.00 | 0.00 | 1 | 1007.7 |
| 20260509100502 | 54 | 154 | 0.0 | 0.0 | 0.00 | 0.00 | 0.00 | 1 | 1007.8 |
| 20260509100044 | 54 | 154 | 0.0 | 0.0 | 0.00 | 0.00 | 0.00 | 1 | 1007.9 |
| 20260509095521 | 54 | 154 | 0.0 | 0.0 | 0.00 | 0.00 | 0.00 | 1 | 1007.8 |
| 20260509095103 | 54 | 154 | 0.0 | 0.0 | 0.00 | 0.00 | 0.00 | 1 | 1007.8 |
| 20260509094540 | 54 | 154 | 0.0 | 0.0 | 0.00 | 0.00 | 0.00 | 1 | 1007.9 |
| 20260509094013 | 55 | 154 | 0.0 | 0.0 | 0.00 | 0.00 | 0.00 | 1 | 1007.9 |
| 20260509093555 | 55 | 154 | 0.0 | 0.0 | 0.00 | 0.00 | 0.00 | 1 | 1007.8 |
| 20260509093030 | 55 | 154 | 0.0 | 0.0 | 0.00 | 0.00 | 0.00 | 1 | 1007.9 |
| 20260509092506 | 55 | 154 | 0.0 | 0.0 | 0.00 | 0.00 | 0.00 | 1 | 1007.9 |
| 20260509092047 | 55 | 154 | 0.0 | 0.0 | 0.00 | 0.00 | 0.00 | 1 | 1007.8 |
| 20260509091536 | 55 | 154 | 0.0 | 0.0 | 0.00 | 0.00 | 0.00 | 1 | 1007.7 |
| 20260509091001 | 55 | 154 | 0.0 | 0.0 | 0.00 | 0.00 | 0.00 | 1 | 1007.8 |
| 20260509090543 | 55 | 154 | 0.0 | 0.0 | 0.00 | 0.00 | 0.00 | 1 | 1007.7 |
| 20260509090017 | 55 | 154 | 0.0 | 0.0 | 0.00 | 0.00 | 0.00 | 1 | 1007.6 |
| 20260509085557 | 55 | 154 | 0.0 | 0.0 | 0.00 | 0.00 | 0.00 | 1 | 1007.6 |
| 20260509085034 | 55 | 154 | 0.0 | 0.0 | 0.00 | 0.00 | 0.00 | 1 | 1007.5 |
| 20260509084510 | 55 | 154 | 0.0 | 0.0 | 0.00 | 0.00 | 0.00 | 1 | 1007.7 |
| 20260509084052 | 55 | 154 | 0.0 | 0.0 | 0.00 | 0.00 | 0.00 | 1 | 1007.7 |
| 20260509083527 | 55 | 154 | 0.0 | 0.0 | 0.00 | 0.00 | 0.00 | 1 | 1007.7 |
| 20260509083002 | 55 | 154 | 0.0 | 0.0 | 0.00 | 0.00 | 0.00 | 1 | 1007.6 |
| 20260509082543 | 55 | 154 | 0.0 | 0.0 | 0.00 | 0.00 | 0.00 | 1 | 1007.7 |
| 20260509082019 | 54 | 154 | 0.0 | 0.0 | 0.00 | 0.00 | 0.00 | 1 | 1007.7 |
| 20260509081611 | 54 | 154 | 0.0 | 0.0 | 0.00 | 0.00 | 0.00 | 1 | 1007.8 |
| 20260509081037 | 54 | 154 | 0.0 | 0.0 | 0.00 | 0.00 | 0.00 | 1 | 1007.8 |
| 20260509080512 | 54 | 154 | 0.0 | 0.0 | 0.00 | 0.00 | 0.00 | 1 | 1007.8 |
| 20260509080053 | 54 | 154 | 0.0 | 0.0 | 0.00 | 0.00 | 0.00 | 1 | 1007.7 |
| 20260509075529 | 54 | 154 | 0.0 | 0.0 | 0.00 | 0.00 | 0.00 | 1 | 1007.8 |
| 20260509075004 | 54 | 154 | 0.0 | 0.0 | 0.00 | 0.00 | 0.00 | 1 | 1007.8 |
| 20260509074549 | 54 | 154 | 0.0 | 0.0 | 0.00 | 0.00 | 0.00 | 1 | 1007.7 |
| 20260509074017 | 54 | 154 | 0.0 | 0.0 | 0.00 | 0.00 | 0.00 | 1 | 1007.8 |
| 20260509073601 | 54 | 154 | 0.0 | 0.0 | 0.00 | 0.00 | 0.00 | 1 | 1007.9 |
| 20260509073033 | 55 | 154 | 0.0 | 0.0 | 0.00 | 0.00 | 0.00 | 1 | 1007.9 |
| 20260509072510 | 55 | 154 | 0.0 | 0.0 | 0.00 | 0.00 | 0.00 | 1 | 1008.0 |
| 20260509072055 | 55 | 154 | 0.0 | 0.0 | 0.00 | 0.00 | 0.00 | 1 | 1008.0 |
| 20260509071527 | 55 | 154 | 0.0 | 0.0 | 0.00 | 0.00 | 0.00 | 1 | 1007.9 |
| 20260509071004 | 55 | 154 | 0.0 | 0.0 | 0.00 | 0.00 | 0.00 | 1 | 1007.9 |
| 20260509070544 | 55 | 154 | 0.0 | 0.0 | 0.00 | 0.00 | 0.00 | 1 | 1008.0 |
| 20260509070022 | 55 | 154 | 0.0 | 0.0 | 0.00 | 0.00 | 0.00 | 1 | 1008.0 |
| 20260509065601 | 55 | 154 | 0.0 | 0.0 | 0.00 | 0.00 | 0.00 | 1 | 1008.0 |
| 20260509065037 | 55 | 154 | 0.0 | 0.0 | 0.00 | 0.00 | 0.00 | 1 | 1008.0 |
| 20260509064515 | 55 | 154 | 0.0 | 0.0 | 0.00 | 0.00 | 0.00 | 1 | 1008.0 |
| 20260509064055 | 55 | 154 | 0.0 | 0.0 | 0.00 | 0.00 | 0.00 | 1 | 1008.1 |
| 20260509063530 | 55 | 154 | 0.0 | 0.0 | 0.00 | 0.00 | 0.00 | 1 | 1008.1 |
| 20260509063013 | 56 | 154 | 0.0 | 0.0 | 0.00 | 0.00 | 0.00 | 1 | 1008.1 |
| 20260509062548 | 56 | 154 | 0.0 | 0.0 | 0.00 | 0.00 | 0.00 | 1 | 1008.2 |
| 20260509062029 | 56 | 154 | 0.0 | 0.0 | 0.00 | 0.00 | 0.00 | 1 | 1008.2 |
| 20260509061607 | 56 | 153 | 0.0 | 0.0 | 0.00 | 0.00 | 0.00 | 1 | 1008.3 |
| 20260509061039 | 56 | 154 | 0.0 | 0.9 | 0.00 | 0.00 | 0.00 | 1 | 1008.3 |
| 20260509060516 | 55 | 154 | 0.0 | 0.9 | 0.00 | 0.00 | 0.00 | 1 | 1008.3 |
| 20260509060056 | 55 | 154 | 0.0 | 0.0 | 0.00 | 0.00 | 0.00 | 1 | 1008.4 |
| 20260509055532 | 55 | 154 | 0.0 | 0.0 | 0.00 | 0.00 | 0.00 | 1 | 1008.3 |
| 20260509055008 | 55 | 154 | 0.0 | 0.0 | 0.00 | 0.00 | 0.00 | 1 | 1008.3 |
| 20260509054559 | 55 | 154 | 0.0 | 0.0 | 0.00 | 0.00 | 0.00 | 1 | 1008.4 |
| 20260509054025 | 55 | 154 | 0.0 | 0.0 | 0.00 | 0.00 | 0.00 | 1 | 1008.3 |
| 20260509053501 | 55 | 154 | 0.0 | 0.0 | 0.00 | 0.00 | 0.00 | 1 | 1008.3 |
| 20260509053046 | 55 | 154 | 0.0 | 0.0 | 0.00 | 0.00 | 0.00 | 1 | 1008.3 |
| 20260509052517 | 55 | 128 | 0.0 | 0.0 | 0.00 | 0.00 | 0.00 | 1 | 1008.3 |
| 20260509052059 | 55 | 128 | 0.0 | 0.0 | 0.00 | 0.00 | 0.00 | 1 | 1008.2 |
| 20260509051539 | 55 | 128 | 0.0 | 0.0 | 0.00 | 0.00 | 0.00 | 1 | 1008.3 |
| 20260509051012 | 55 | 128 | 0.0 | 0.0 | 0.00 | 0.00 | 0.00 | 1 | 1008.3 |
| 20260509050556 | 55 | 127 | 0.0 | 0.0 | 0.00 | 0.00 | 0.00 | 1 | 1008.2 |
| 20260509050031 | 55 | 126 | 0.0 | 0.0 | 0.00 | 0.00 | 0.00 | 3 | 1008.3 |
| 20260509045504 | 55 | 126 | 0.0 | 0.0 | 0.00 | 0.00 | 0.00 | 3 | 1008.3 |
| 20260509045046 | 55 | 126 | 0.0 | 0.0 | 0.00 | 0.00 | 0.00 | 3 | 1008.4 |
| 20260509044522 | 55 | 126 | 0.0 | 0.0 | 0.00 | 0.00 | 0.00 | 5 | 1008.4 |
| 20260509044105 | 55 | 126 | 0.0 | 0.0 | 0.00 | 0.00 | 0.00 | 7 | 1008.5 |
| 20260509043539 | 55 | 126 | 0.0 | 0.0 | 0.00 | 0.00 | 0.00 | 7 | 1008.5 |
| 20260509043016 | 56 | 126 | 0.0 | 0.0 | 0.00 | 0.00 | 0.00 | 7 | 1008.5 |
| 20260509042556 | 56 | 126 | 0.0 | 0.0 | 0.00 | 0.00 | 0.00 | 7 | 1008.5 |
| 20260509042033 | 56 | 347 | 0.0 | 0.0 | 0.00 | 0.00 | 0.00 | 8 | 1008.6 |
| 20260509041508 | 56 | 347 | 0.0 | 0.0 | 0.00 | 0.00 | 0.00 | 9 | 1008.7 |
| 20260509041049 | 56 | 347 | 0.0 | 0.0 | 0.00 | 0.00 | 0.00 | 8 | 1008.7 |
| 20260509040523 | 56 | 347 | 0.0 | 0.0 | 0.00 | 0.00 | 0.00 | 9 | 1008.7 |
| 20260509040106 | 56 | 347 | 0.0 | 0.0 | 0.00 | 0.00 | 0.00 | 10 | 1008.6 |
| 20260509035541 | 56 | 347 | 0.0 | 0.0 | 0.00 | 0.00 | 0.00 | 12 | 1008.6 |
| 20260509035017 | 56 | 347 | 0.0 | 0.0 | 0.00 | 0.00 | 0.00 | 13 | 1008.6 |
| 20260509034557 | 56 | 347 | 0.0 | 0.0 | 0.00 | 0.00 | 0.00 | 15 | 1008.5 |
| 20260509034037 | 56 | 347 | 0.0 | 0.0 | 0.00 | 0.00 | 0.00 | 20 | 1008.6 |
| 20260509033509 | 56 | 347 | 0.0 | 0.0 | 0.00 | 0.00 | 0.00 | 21 | 1008.6 |
| 20260509033050 | 56 | 347 | 0.0 | 0.0 | 0.00 | 0.00 | 0.00 | 22 | 1008.6 |
| 20260509032526 | 56 | 347 | 0.0 | 0.0 | 0.00 | 0.00 | 0.00 | 23 | 1008.7 |
| 20260509032002 | 57 | 347 | 0.0 | 0.0 | 0.00 | 0.00 | 0.00 | 22 | 1008.6 |
| 20260509031543 | 57 | 347 | 0.0 | 0.0 | 0.00 | 0.00 | 0.00 | 23 | 1008.5 |
| 20260509031018 | 57 | 347 | 0.0 | 0.0 | 0.00 | 0.00 | 0.00 | 29 | 1008.5 |
| 20260509030558 | 57 | 347 | 0.0 | 0.0 | 0.00 | 0.00 | 0.00 | 29 | 1008.6 |
| 20260509030034 | 57 | 347 | 0.0 | 0.0 | 0.00 | 0.00 | 0.00 | 32 | 1008.5 |
| 20260509025510 | 57 | 347 | 0.0 | 0.0 | 0.00 | 0.00 | 0.00 | 32 | 1008.4 |
| 20260509025053 | 57 | 347 | 0.0 | 0.9 | 0.00 | 0.00 | 0.00 | 34 | 1008.4 |
| 20260509024530 | 57 | 347 | 0.0 | 0.9 | 0.00 | 0.00 | 0.00 | 30 | 1008.3 |
| 20260509024007 | 57 | 347 | 0.0 | 0.0 | 0.00 | 0.00 | 0.00 | 36 | 1008.2 |
| 20260509023546 | 57 | 347 | 0.0 | 0.0 | 0.00 | 0.00 | 0.00 | 44 | 1008.2 |
| 20260509023027 | 57 | 347 | 0.0 | 0.0 | 0.00 | 0.00 | 0.00 | 49 | 1008.2 |
| 20260509022603 | 57 | 347 | 0.0 | 0.0 | 0.00 | 0.00 | 0.00 | 49 | 1008.2 |
| 20260509022038 | 57 | 347 | 0.0 | 0.0 | 0.00 | 0.00 | 0.00 | 52 | 1008.1 |
| 20260509021515 | 58 | 347 | 0.0 | 0.0 | 0.00 | 0.00 | 0.00 | 53 | 1008.0 |
| 20260509021055 | 58 | 347 | 0.0 | 0.0 | 0.00 | 0.00 | 0.00 | 53 | 1007.9 |
| 20260509020530 | 58 | 347 | 0.0 | 0.0 | 0.00 | 0.00 | 0.00 | 54 | 1007.8 |
| 20260509020011 | 58 | 347 | 0.0 | 0.0 | 0.00 | 0.00 | 0.00 | 57 | 1007.8 |
| 20260509015547 | 58 | 347 | 0.0 | 0.0 | 0.00 | 0.00 | 0.00 | 56 | 1007.7 |
| 20260509015026 | 59 | 347 | 0.0 | 0.0 | 0.00 | 0.00 | 0.00 | 60 | 1007.7 |
| 20260509014604 | 59 | 347 | 0.0 | 0.0 | 0.00 | 0.00 | 0.00 | 61 | 1007.7 |
| 20260509014039 | 59 | 347 | 0.0 | 0.0 | 0.00 | 0.00 | 0.00 | 62 | 1007.6 |
| 20260509013516 | 59 | 347 | 0.0 | 0.0 | 0.00 | 0.00 | 0.00 | 65 | 1007.6 |
| 20260509013102 | 59 | 347 | 0.0 | 0.0 | 0.00 | 0.00 | 0.00 | 66 | 1007.5 |
| 20260509012532 | 60 | 347 | 0.0 | 0.0 | 0.00 | 0.00 | 0.00 | 66 | 1007.4 |
| 20260509012005 | 60 | 347 | 0.0 | 0.0 | 0.00 | 0.00 | 0.00 | 67 | 1007.2 |
| 20260509011545 | 60 | 347 | 0.0 | 0.0 | 0.00 | 0.00 | 0.00 | 69 | 1007.1 |
| 20260509011021 | 60 | 347 | 0.0 | 0.0 | 0.00 | 0.00 | 0.00 | 69 | 1007.1 |
| 20260509010606 | 61 | 347 | 0.0 | 0.0 | 0.00 | 0.00 | 0.00 | 69 | 1007.0 |
| 20260509010043 | 61 | 347 | 0.0 | 0.0 | 0.00 | 0.00 | 0.00 | 70 | 1006.9 |
| 20260509005520 | 61 | 347 | 0.0 | 0.0 | 0.00 | 0.00 | 0.00 | 71 | 1006.8 |
| 20260509005059 | 61 | 347 | 0.0 | 0.0 | 0.00 | 0.00 | 0.00 | 71 | 1006.8 |
| 20260509004536 | 61 | 347 | 0.0 | 0.0 | 0.00 | 0.00 | 0.00 | 72 | 1006.5 |
| 20260509004011 | 61 | 347 | 0.0 | 0.0 | 0.00 | 0.00 | 0.00 | 72 | 1006.6 |
| 20260509003552 | 62 | 347 | 0.0 | 0.0 | 0.00 | 0.00 | 0.00 | 72 | 1006.6 |
| 20260509003028 | 62 | 347 | 0.0 | 0.9 | 0.00 | 0.00 | 0.00 | 72 | 1006.6 |
| 20260509002504 | 62 | 347 | 0.0 | 0.9 | 0.00 | 0.00 | 0.00 | 72 | 1006.6 |
| 20260509002045 | 62 | 347 | 0.0 | 1.7 | 0.00 | 0.00 | 0.00 | 72 | 1006.7 |
| 20260509001520 | 62 | 347 | 0.9 | 1.7 | 0.00 | 0.00 | 0.00 | 72 | 1006.7 |
| 20260509001103 | 62 | 11 | 0.0 | 2.6 | 0.00 | 0.00 | 0.00 | 72 | 1006.7 |
| 20260509000537 | 62 | 4 | 0.0 | 2.6 | 0.00 | 0.00 | 0.00 | 72 | 1006.7 |
| 20260509000013 | 62 | 159 | 0.0 | 0.9 | 0.00 | 0.00 | 0.00 | 72 | 1006.7 |
| 20260508235553 | 62 | 159 | 0.0 | 0.0 | 0.00 | 0.00 | 0.00 | 72 | 1006.5 |
| 20260508235029 | 62 | 159 | 0.0 | 0.9 | 0.00 | 0.00 | 0.00 | 72 | 1006.4 |
| 20260508234505 | 62 | 159 | 0.0 | 0.9 | 0.00 | 0.00 | 0.00 | 73 | 1006.2 |
| 20260508234048 | 62 | 159 | 0.0 | 0.0 | 0.00 | 0.00 | 0.00 | 72 | 1006.1 |
| 20260508233521 | 62 | 159 | 0.0 | 0.0 | 0.00 | 0.00 | 0.00 | 72 | 1006.0 |
| 20260508233128 | 62 | 159 | 0.0 | 0.0 | 0.00 | 0.00 | 0.00 | 72 | 1006.0 |
| 20260508232537 | 62 | 159 | 0.0 | 0.0 | 0.00 | 0.00 | 0.00 | 71 | 1006.2 |
| 20260508232013 | 62 | 159 | 0.0 | 0.0 | 0.00 | 0.00 | 0.00 | 71 | 1006.3 |
| 20260508231554 | 61 | 39 | 0.0 | 0.0 | 0.00 | 0.00 | 0.00 | 71 | 1006.3 |
| 20260508231033 | 61 | 3 | 0.0 | 0.0 | 0.00 | 0.00 | 0.00 | 69 | 1006.3 |
| 20260508230505 | 61 | 3 | 0.0 | 0.9 | 0.00 | 0.00 | 0.00 | 69 | 1006.4 |
| 20260508230048 | 61 | 3 | 0.0 | 0.9 | 0.00 | 0.00 | 0.00 | 67 | 1006.4 |
| 20260508225522 | 61 | 3 | 0.0 | 1.7 | 0.00 | 0.00 | 0.00 | 67 | 1006.4 |
| 20260508225103 | 61 | 3 | 0.0 | 2.6 | 0.00 | 0.00 | 0.00 | 68 | 1006.4 |
| 20260508224538 | 61 | 359 | 0.9 | 2.6 | 0.00 | 0.00 | 0.00 | 67 | 1006.6 |
| 20260508224013 | 61 | 347 | 0.0 | 3.5 | 0.00 | 0.00 | 0.00 | 67 | 1006.8 |
| 20260508223558 | 61 | 345 | 1.7 | 4.3 | 0.00 | 0.00 | 0.00 | 69 | 1006.9 |
| 20260508223032 | 62 | 358 | 0.0 | 6.1 | 0.00 | 0.00 | 0.00 | 66 | 1006.9 |
| 20260508222507 | 62 | 34 | 3.5 | 6.1 | 0.00 | 0.00 | 0.00 | 70 | 1007.0 |
| 20260508222048 | 62 | 10 | 0.9 | 5.2 | 0.00 | 0.00 | 0.00 | 70 | 1006.9 |
| 20260508221524 | 62 | 23 | 1.7 | 5.2 | 0.00 | 0.00 | 0.00 | 72 | 1007.0 |